Terminal Aerodrome Forecast
Issued by NWS Green Bay, WI

Home | Current Version | Previous Version | Text Only | Print | Product List | Glossary Off
Versions: 1 2 3 4 5 6 7 8 9 10 11 12 13 14 15 16 17 18 19 20 21 22 23 24 25 26 27 28 29 30 31 32 33 34 35 36 37 38 39 40 41

000
FTUS43 KGRB 031400 AAB
TAFGRB
TAF AMD
KGRB 031426Z 0314/0412 16011G18KT 1 1/2SM -SN BKN014
      TEMPO 0314/0318 1/2SM SN FZFG BKN006
     FM031800 17008G16KT 1SM -SN OVC012
     FM032000 24009KT 6SM -SN SCT015 OVC018
     FM032300 27010KT P6SM -SN SCT009 OVC025
     FM040200 28012G20KT P6SM SCT030 SCT100=

USA.gov is the U.S. government's official web portal to all federal, state and local government web resources and services.